[[[{"header":{"parameterUnit":"kt","parameterCategory":2,"dx":1,"dy":1,"la1":30.253999710083008,"la2":30.299108505249023,"lo1":-89.0895004272461,"lo2":-89.04439544677734,"nx":28,"ny":28,"refTime":"2022-10-08T21:00:00:Z","depth":0,"parameterNumber":1,"parameterNumberName":"U-component_of_WINDS"},"data":[-5.6105,-5.6277,-5.6251,-5.6434,-5.6442,-5.6563,-5.6598,-5.6639,-5.6666,-5.6806,-5.6882,-5.6873,-5.6888,-5.6972,-5.7053,-5.7047,-5.7084,-5.7164,-5.7144,-5.6809,-5.6762,-5.6716,-5.6675,-5.7172,-5.7172,-5.7495,-5.7498,-5.75,-5.5862,-5.5872,-5.5961,-5.603,-5.6106,-5.6013,-5.6059,-5.613,-5.624,-5.6273,-5.6346,-5.6468,-5.656,-5.6548,-5.6632,-5.6711,-5.6673,-5.6736,-5.6732,-5.6737,-5.6377,-5.6334,-5.6766,-5.6766,-5.6766,-5.6766,-5.6766,-5.6766,-5.5413,-5.5517,-5.5543,-5.564,-5.5667,-5.5713,-5.5807,-5.5793,-5.5879,-5.5964,-5.5914,-5.6039,-5.6067,-5.6154,-5.6177,-5.6273,-5.6198,-5.6259,-5.6275,-5.6293,-5.6317,-5.5859,-5.6285,-5.6284,-5.6282,-5.6281,-5.628,0,-5.5078,-5.5049,-5.5132,-5.5209,-5.5277,-5.5333,-5.538,-5.5437,-5.5365,-5.5439,-5.5545,-5.5601,-5.5712,-5.5808,-5.588,-5.5891,-5.5804,-5.5791,-5.5833,-5.5862,-5.5879,-5.5875,-5.5294,-5.578,-5.5775,-5.5772,-5.577,-5.5768,-5.4626,-5.475,-5.4763,-5.4826,-5.4844,-5.4946,-5.5,-5.4927,-5.4989,-5.5035,-5.513,-5.5225,-5.5297,-5.547,-5.5452,-5.5535,-5.5494,-5.5683,-5.5507,-5.5528,-5.5502,-5.5497,-5.551,-5.5721,-5.5727,-5.5732,-5.5736,0,-5.4375,-5.433,-5.4513,-5.4513,-5.4517,-5.465,-5.4651,-5.4751,-5.4725,-5.4859,-5.4886,-5.4847,-5.4952,-5.4902,-5.5012,-5.4983,-5.5203,-5.5158,-5.5193,-5.5183,-5.5349,-5.5336,-5.5892,-5.5962,-5.5442,-5.5447,-5.5451,0,-5.3975,-5.4139,-5.4063,-5.4171,-5.4351,-5.4272,-5.4453,-5.4449,-5.4471,-5.4576,-5.4467,-5.4568,-5.4488,-5.4582,-5.4539,-5.4709,-5.4729,-5.4718,-5.4706,-5.4731,-5.4733,-5.4766,-5.4744,-5.4668,-5.4666,-5.4663,-5.4661,0,-5.359,-5.374,-5.3914,-5.3942,-5.3959,-5.4043,-5.4054,-5.4078,-5.4132,-5.4194,-5.4229,-5.4307,-5.4351,-5.4413,-5.4359,-5.4241,-5.4564,-5.4391,-5.4554,-5.4556,-5.4632,-5.4629,-5.5129,-5.4657,-5.4657,-5.4656,-5.4655,0,-5.326,-5.3324,-5.3583,-5.3595,-5.3638,-5.3752,-5.3824,-5.391,-5.3944,-5.3924,-5.3972,-5.3895,-5.4037,-5.3869,-5.4065,-5.3927,-5.3977,-5.3978,-5.3989,-5.4003,-5.3818,-5.4112,-5.459,-5.464,-5.401,-5.4005,-5.4,0,-5.2833,-5.3082,-5.3017,-5.3264,-5.3373,-5.3243,-5.3369,-5.3401,-5.3385,-5.3474,-5.3456,-5.3559,-5.3423,-5.3449,-5.3551,-5.3538,-5.3716,-5.3511,-5.3645,-5.3651,-5.3644,-5.4083,-5.4169,-5.449,-5.393,-5.3937,-5.3943,0,-5.2497,-5.2516,-5.2565,-5.2593,-5.2623,-5.2713,-5.2857,-5.2941,-5.3004,-5.3051,-5.3172,-5.3313,-5.3217,-5.326,-5.3205,-5.3316,-5.3593,-5.3198,-5.3198,-5.3274,-5.389,-5.3971,-5.4025,-5.3532,-5.354,-5.3547,-5.3887,0,-5.2016,-5.2133,-5.2262,-5.2327,-5.2388,-5.2539,-5.2486,-5.2556,-5.2497,-5.2477,-5.2651,-5.2665,-5.2752,-5.2798,-5.2742,-5.3008,-5.2957,-5.2854,-5.269,-5.2977,-5.3088,-5.3133,-5.2529,-5.2523,-5.2519,-5.2516,0,0,-5.1621,-5.1788,-5.1712,-5.1849,-5.1896,-5.1759,-5.1926,-5.1956,-5.202,-5.2056,-5.1963,-5.2167,-5.2183,-5.24,-5.2485,-5.2519,-5.2563,-5.2465,-5.284,-5.2877,-5.291,-5.303,-5.3078,-5.2508,-5.2506,-5.2505,-5.2503,0,-5.1435,-5.1452,-5.1617,-5.1643,-5.1681,-5.1651,-5.1691,-5.1704,-5.1699,-5.1868,-5.1755,-5.1853,-5.2018,-5.205,-5.2089,-5.2436,-5.2348,-5.2466,-5.2672,-5.2798,-5.284,-5.2877,-5.3004,-5.305,-5.2493,-5.2494,-5.2494,0,-5.1097,-5.1106,-5.1179,-5.1278,-5.1302,-5.1416,-5.123,-5.1358,-5.1442,-5.1288,-5.1459,-5.146,-5.1499,-5.171,-5.1803,-5.1722,-5.2154,-5.2007,-5.2033,-5.2044,-5.2163,-5.2214,-5.2259,-5.1665,-5.1662,-5.166,0,0,-5.0944,-5.1052,-5.1039,-5.1234,-5.1257,-5.1215,-5.127,-5.1217,-5.1253,-5.1269,-5.1269,-5.1309,-5.1403,-5.1468,-5.1553,-5.1793,-5.1796,-5.1908,-5.1947,-5.1979,-5.2007,-5.2135,-5.2185,-5.165,-5.165,-5.1649,0,0,-5.0871,-5.0863,-5.0797,-5.1017,-5.1055,-5.1056,-5.1178,-5.1097,-5.1169,-5.1146,-5.1063,-5.107,-5.1266,-5.1272,-5.1143,-5.1495,-5.1334,-5.1363,-5.1485,-5.1533,-5.1572,-5.1568,-5.0957,0,0,0,0,0,-5.0654,-5.0863,-5.0803,-5.0832,-5.0957,-5.1089,-5.1105,-5.1041,-5.0928,-5.1026,-5.1012,-5.0912,-5.1186,-5.107,-5.11,-5.1246,-5.152,-5.1543,-5.1565,-5.1777,-5.1828,-5.1872,0,0,0,0,0,0,-5.0664,-5.07,-5.0798,-5.0809,-5.0836,-5.1081,-5.0876,-5.0864,-5.0916,-5.0894,-5.0918,-5.0913,-5.0861,-5.105,-5.1078,-5.1218,-5.0948,-5.1529,-5.1549,-5.1566,-5.1795,-5.1837,-5.1873,0,0,0,0,0,-5.0673,-5.0701,-5.0918,-5.0805,-5.0829,-5.0794,-5.0867,-5.0856,-5.0895,-5.0875,-5.0867,-5.0842,-5.0867,-5.0886,-5.1066,-5.1207,-5.0927,-5.0938,-5.1542,-5.1557,-5.1571,-5.1815,0,0,0,0,0,0,-5.0679,-5.0692,-5.0921,-5.0926,-5.0721,-5.0779,-5.0785,-5.085,-5.0871,-5.0865,-5.0794,-5.0777,-5.0874,-5.0887,-5.0903,-5.1207,-5.0911,-5.0922,-5.0929,-5.1553,-5.1565,-5.1576,0,0,0,0,0,0,-5.0676,-5.0697,-5.0924,-5.0821,-5.0813,-5.0765,-5.0772,-5.0915,-5.0873,-5.0788,-5.0774,-5.0786,-5.085,-5.089,-5.0901,-5.1127,-5.0899,-5.0909,-5.0916,-5.0921,-5.1563,-5.1573,0,0,0,0,0,0,-5.0683,-5.0702,-5.0819,-5.0814,-5.0806,-5.0856,-5.089,-5.1022,-5.0784,-5.0789,-5.0761,-5.0751,-5.0856,-5.0866,-5.09,-5.1122,-5.1126,-5.0899,-5.0906,-5.0911,-5.0914,0,0,0,0,0,0,0,-5.069,-5.0584,-5.0892,-5.0808,-5.0801,-5.0971,-5.0972,-5.0974,-5.0782,-5.0773,-5.0764,-5.0755,-5.0838,-5.085,-5.0862,-5.1118,0,0,-5.0898,-5.0903,0,0,0,0,0,0,0,0,-5.0575,-5.0582,-5.0893,-5.0894,-5.0895,-5.0971,-5.0972,-5.0973,-5.0781,-5.0773,-5.0766,-5.0759,-5.0842,-5.0851,-5.086,0,0,0,0,0,0,0,0,0,0,0,0,0,0,0,-5.0893,-5.0894,0,-5.0971,-5.0972,-5.0973,-5.078,-5.0773,-5.0767,-5.0761,-5.0844,-5.0852,-5.086,0,0,0,0,0,0,0,0,0,0,0,0,0,0,0,0,0,0,0,0,0,0,0,0,0,0,0,0,0,0,0,0,0,0,0,0,0,0,0,0,0,0,0,0,0,0,0,0,0,0,0,0,0,0,0,0,0,0,0,0,0,0,0,0,0,0,0,0,0]}],[{"header":{"parameterUnit":"kt","parameterCategory":2,"dx":1,"dy":1,"la1":30.253999710083008,"la2":30.299108505249023,"lo1":-89.0895004272461,"lo2":-89.04439544677734,"nx":28,"ny":28,"refTime":"2022-10-08T21:00:00:Z","depth":0,"parameterNumber":2,"parameterNumberName":"V-component_of_WINDS"},"data":[-10.3306,-10.3461,-10.3455,-10.3627,-10.365,-10.3765,-10.3803,-10.3851,-10.3886,-10.4019,-10.4092,-10.4098,-10.4126,-10.4209,-10.4285,-10.4284,-10.4317,-10.4377,-10.4366,-10.4107,-10.4071,-10.4036,-10.4,-10.4385,-10.4386,-10.4634,-10.4637,-10.4639,-10.3115,-10.3141,-10.3232,-10.3314,-10.339,-10.3328,-10.3386,-10.3452,-10.3555,-10.36,-10.3672,-10.3786,-10.3874,-10.3881,-10.3963,-10.403,-10.4003,-10.4052,-10.4046,-10.4051,-10.3775,-10.3737,-10.4073,-10.4073,-10.4073,-10.4072,-10.4072,-10.4072,-10.2767,-10.2861,-10.2908,-10.3005,-10.3044,-10.3098,-10.3184,-10.319,-10.3275,-10.3363,-10.3335,-10.3449,-10.3489,-10.3581,-10.3609,-10.3695,-10.3638,-10.3687,-10.3699,-10.3712,-10.3728,-10.3368,-10.3708,-10.3707,-10.3706,-10.3705,-10.3704,0,-10.251,-10.2499,-10.2585,-10.2669,-10.2739,-10.2802,-10.2858,-10.291,-10.2878,-10.2949,-10.305,-10.3105,-10.3214,-10.3305,-10.3378,-10.3396,-10.3334,-10.3327,-10.336,-10.3376,-10.338,-10.3378,-10.2927,-10.3316,-10.3313,-10.331,-10.3309,-10.3307,-10.2157,-10.2268,-10.2312,-10.2373,-10.2403,-10.2501,-10.2557,-10.252,-10.2581,-10.2641,-10.2723,-10.2815,-10.2886,-10.3045,-10.3045,-10.3124,-10.3094,-10.3244,-10.3106,-10.3116,-10.3095,-10.3089,-10.3098,-10.3271,-10.3276,-10.328,-10.3283,0,-10.1959,-10.1947,-10.2115,-10.2147,-10.2158,-10.2274,-10.2299,-10.2389,-10.2383,-10.2505,-10.2531,-10.2521,-10.2619,-10.2595,-10.27,-10.2684,-10.2867,-10.2837,-10.2853,-10.2846,-10.2976,-10.2964,-10.3407,-10.3462,-10.3063,-10.3067,-10.307,0,-10.1652,-10.1798,-10.1771,-10.1869,-10.2028,-10.1988,-10.2146,-10.2157,-10.2192,-10.2287,-10.2216,-10.2306,-10.2261,-10.2347,-10.2323,-10.2469,-10.2489,-10.2484,-10.2476,-10.2491,-10.2491,-10.2519,-10.25,-10.2455,-10.2453,-10.2451,-10.2449,0,-10.1342,-10.1498,-10.1658,-10.1691,-10.1738,-10.1813,-10.1835,-10.1874,-10.1929,-10.1995,-10.2029,-10.2108,-10.2151,-10.2211,-10.2181,-10.2088,-10.2359,-10.2224,-10.2354,-10.2355,-10.2414,-10.2411,-10.281,-10.2446,-10.2445,-10.2445,-10.2444,0,-10.1091,-10.1165,-10.1398,-10.1435,-10.1477,-10.1581,-10.1658,-10.1742,-10.1788,-10.1781,-10.1832,-10.178,-10.1907,-10.1775,-10.1948,-10.1835,-10.1881,-10.1888,-10.1897,-10.1905,-10.1758,-10.1985,-10.237,-10.2408,-10.1914,-10.191,-10.1906,0,-10.0738,-10.0971,-10.094,-10.1161,-10.1265,-10.1178,-10.1292,-10.1336,-10.1336,-10.142,-10.1418,-10.1515,-10.1412,-10.1438,-10.1527,-10.1528,-10.1674,-10.1507,-10.1624,-10.1629,-10.1615,-10.1969,-10.2031,-10.2288,-10.1849,-10.1855,-10.186,0,-10.0463,-10.0523,-10.0565,-10.0601,-10.0655,-10.0741,-10.0872,-10.096,-10.1019,-10.1075,-10.1182,-10.1317,-10.1244,-10.1289,-10.1254,-10.1348,-10.1573,-10.1257,-10.1257,-10.1313,-10.1819,-10.1878,-10.1922,-10.1529,-10.1536,-10.1541,-10.1815,0,-10.0086,-10.0201,-10.0314,-10.0397,-10.046,-10.0598,-10.0576,-10.0644,-10.0606,-10.0602,-10.0759,-10.0787,-10.0874,-10.0917,-10.0879,-10.1103,-10.1061,-10.0982,-10.0851,-10.1084,-10.1173,-10.1209,-10.072,-10.0716,-10.0712,-10.0709,0,0,-9.975,-9.9915,-9.9876,-10.0004,-10.0054,-9.9962,-10.0111,-10.0148,-10.0227,-10.0262,-10.019,-10.0384,-10.041,-10.0602,-10.0673,-10.0708,-10.0745,-10.0665,-10.0973,-10.1003,-10.103,-10.1126,-10.1165,-10.0703,-10.0702,-10.0701,-10.07,0,-9.9608,-9.9643,-9.9793,-9.9831,-9.9887,-9.9877,-9.9913,-9.995,-9.9955,-10.011,-10.0028,-10.0118,-10.0276,-10.0313,-10.0352,-10.0641,-10.0573,-10.067,-10.0833,-10.094,-10.0974,-10.1004,-10.1106,-10.1143,-10.0692,-10.0692,-10.0693,0,-9.9332,-9.9362,-9.9432,-9.9546,-9.9581,-9.9689,-9.9547,-9.9668,-9.9747,-9.9636,-9.9791,-9.9803,-9.985,-10.0036,-10.0118,-10.0053,-10.0418,-10.0299,-10.0319,-10.0327,-10.0429,-10.047,-10.0506,-10.0025,-10.0023,-10.0021,0,0,-9.9211,-9.9319,-9.9338,-9.9514,-9.9542,-9.9529,-9.9584,-9.9552,-9.96,-9.9619,-9.9633,-9.9679,-9.9769,-9.9829,-9.9913,-10.0121,-10.0125,-10.0218,-10.0249,-10.0275,-10.0297,-10.0406,-10.0446,-10.0013,-10.0012,-10.0012,0,0,-9.9152,-9.9183,-9.9137,-9.9339,-9.9389,-9.9417,-9.9524,-9.9467,-9.954,-9.9521,-9.9469,-9.9479,-9.9652,-9.9667,-9.9558,-9.9865,-9.9735,-9.9761,-9.9849,-9.9888,-9.9919,-9.9912,-9.9413,0,0,0,0,0,-9.8996,-9.9179,-9.9138,-9.9168,-9.931,-9.9441,-9.9458,-9.9421,-9.9331,-9.9416,-9.9418,-9.9342,-9.9597,-9.95,-9.9529,-9.965,-9.9905,-9.9924,-9.9942,-10.0105,-10.0146,-10.0181,0,0,0,0,0,0,-9.9007,-9.9045,-9.9132,-9.917,-9.9201,-9.9434,-9.9272,-9.9267,-9.9321,-9.9304,-9.9344,-9.9343,-9.9312,-9.9482,-9.9509,-9.9625,-9.9404,-9.9913,-9.9929,-9.9943,-10.0119,-10.0153,-10.0182,0,0,0,0,0,-9.9017,-9.9047,-9.9285,-9.9166,-9.9194,-9.9189,-9.9265,-9.9259,-9.93,-9.9304,-9.9301,-9.9267,-9.9316,-9.9336,-9.9498,-9.9613,-9.9385,-9.9395,-9.9923,-9.9936,-9.9947,-10.0136,0,0,0,0,0,0,-9.9023,-9.9041,-9.9289,-9.9296,-9.9095,-9.9175,-9.9186,-9.9253,-9.9295,-9.9294,-9.9224,-9.921,-9.9322,-9.9336,-9.9352,-9.9612,-9.937,-9.938,-9.9387,-9.9933,-9.9943,-9.9952,0,0,0,0,0,0,-9.9025,-9.9048,-9.9293,-9.9205,-9.9201,-9.9162,-9.9173,-9.9304,-9.9296,-9.9212,-9.9202,-9.9217,-9.9296,-9.9337,-9.9349,-9.9555,-9.9358,-9.9368,-9.9375,-9.9379,-9.9941,-9.9949,0,0,0,0,0,0,-9.9034,-9.9054,-9.9203,-9.92,-9.9196,-9.9269,-9.9277,-9.9423,-9.9225,-9.9211,-9.9206,-9.9197,-9.93,-9.931,-9.9347,-9.9549,-9.9554,-9.9358,-9.9365,-9.937,-9.9373,0,0,0,0,0,0,0,-9.9041,-9.8918,-9.925,-9.9196,-9.9192,-9.9359,-9.9361,-9.9362,-9.9223,-9.9215,-9.9208,-9.9201,-9.9302,-9.9312,-9.9323,-9.9545,0,0,-9.9357,-9.9362,0,0,0,0,0,0,0,0,-9.8908,-9.8915,-9.925,-9.9252,-9.9253,-9.9359,-9.9361,-9.9362,-9.9222,-9.9216,-9.9209,-9.9204,-9.9304,-9.9313,-9.9322,0,0,0,0,0,0,0,0,0,0,0,0,0,0,0,-9.925,-9.9252,0,-9.9359,-9.9361,-9.9362,-9.9221,-9.9216,-9.9211,-9.9206,-9.9307,-9.9314,-9.9321,0,0,0,0,0,0,0,0,0,0,0,0,0,0,0,0,0,0,0,0,0,0,0,0,0,0,0,0,0,0,0,0,0,0,0,0,0,0,0,0,0,0,0,0,0,0,0,0,0,0,0,0,0,0,0,0,0,0,0,0,0,0,0,0,0,0,0,0,0]}]]]